This demonstration page uses our WeatherBlox Daily Observations layout. Learn more.

Left ArrowRight Arrow

Hourly Observations for January 15, 2017

Temp ( °F °C ) Dew Point ( °F °C ) Humidity (%) Winds ( mph kmh ) Pressure ( in mb ) Visibility ( mi km ) Precip ( " mm )
12:09 am 00:09 Mostly Cloudy 39 4 39 4 100 100 E 13 20 30.18 1022 10 16 0.00 0.00
12:39 am 00:39 Cloudy with Light Rain 40 4.4 40 4.4 100 100 SW 8 13 30.21 1023 10 16 0.00 0.03
12:53 am 00:53 Cloudy 40 4.4 40 4.4 100 100 SW 6 9 30.12 1020 10 16 0.00 0.03
1:09 am 01:09 Cloudy 40 4.4 40 4.4 100 100 SW 5 7 30.18 1022 10 16 0.00 0.00
1:53 am 01:53 Cloudy with Light Rain 40 4.4 40 4.4 100 100 WSW 21 33 30.16 1021 3 4 0.00 0.03
2:12 am 02:12 Cloudy with Light Rain 39 4 39 4 100 100 W 16 26 30.21 1023 3 5 0.00 0.00
2:32 am 02:32 Cloudy with Light Rain 39 4 39 4 100 100 NW 8 13 30.15 1021 10 16 0.00 0.00
2:53 am 02:53 Cloudy with Rain 40 4.4 40 4.4 100 100 NNE 5 7 30.07 1018 8 13 0.07 1.78
3:01 am 03:01 Cloudy with Heavy Rain 40 4.4 40 4.4 100 100 NW 5 7 30.15 1021 3 4 0.06 1.52
3:04 am 03:04 Cloudy with Heavy Rain 39 4 39 4 100 100 N 9 15 30.15 1021 2 3 0.00 0.00
3:11 am 03:11 Cloudy with Heavy Rain 40 4.4 40 4.4 100 100 SE 9 15 30.15 1021 1 2 0.39 9.91
3:27 am 03:27 Cloudy with Heavy Rain 40 4.4 40 4.4 100 100 E 13 20 30.12 1020 2 3 0.55 13.97
3:37 am 03:37 Cloudy with Light Rain 40 4.4 40 4.4 100 100 E 16 26 30.09 1019 7 11 0.55 13.97
3:53 am 03:53 Cloudy with Light Rain 41 5 41 5 100 100 E 16 26 30.01 1016 10 16 0.56 14.22
3:56 am 03:56 Cloudy 41 5 41 5 100 100 E 10 17 30.09 1019 10 16 0.00 0.00
4:53 am 04:53 Cloudy 42 5.6 41 5 96 96 E 8 13 29.98 1015 10 16 0.00 0.03
5:44 am 05:44 Cloudy 45 7 43 6 93 93 Calm 30.03 1017 10 16 0.00 0.00
5:53 am 05:53 Cloudy 44 6.7 43 6.1 96 96 Calm 29.99 1016 10 16 0.02 0.51
6:29 am 06:29 Cloudy with Mist and Fog 43 6.1 43 6.1 100 100 Calm 30.03 1017 2 3 0.00 0.00
6:53 am 06:53 Cloudy with Mist and Fog 43 6.1 43 6.1 100 100 NE 3 6 29.99 1016 2 2 0.00 0.00
7:09 am 07:09 Cloudy with Mist and Fog 43 6.1 43 6.1 100 100 E 3 6 30.03 1017 2 2 0.00 0.00
7:17 am 07:17 Cloudy with Mist and Fog 43 6.1 43 6.1 100 100 E 7 11 30.03 1017 2 3 0.00 0.00
7:40 am 07:40 Cloudy with Mist and Fog 43 6 43 6 100 100 E 7 11 30.03 1017 2 3 0.00 0.00
7:53 am 07:53 Cloudy with Mist and Fog 42 5.6 42 5.6 100 100 E 6 9 29.98 1015 2 3 0.00 0.00
8:00 am 08:00 Cloudy with Mist and Fog 43 6 43 6 100 100 ESE 3 6 30.03 1017 2 3 0.00 0.00
8:07 am 08:07 Cloudy with Mist and Fog 42 5.6 42 5.6 100 100 E 5 7 30.03 1017 2 3 0.00 0.00
8:23 am 08:23 Cloudy with Mist and Fog 42 5.6 42 5.6 100 100 ENE 6 9 30.00 1016 2 3 0.00 0.00
8:53 am 08:53 Cloudy with Light Rain 41 5 41 5 100 100 ENE 9 15 29.94 1014 2 3 0.02 0.51
9:07 am 09:07 Cloudy with Light Rain 41 5 41 5 100 100 ENE 6 9 30.00 1016 3 5 0.02 0.51
9:14 am 09:14 Cloudy with Rain 41 5 41 5 100 100 E 5 7 29.97 1015 2 3 0.00 0.00
9:25 am 09:25 Cloudy with Mist and Fog 42 5.6 41 5 96 96 E 7 11 29.97 1015 2 3 0.03 0.76
9:42 am 09:42 Cloudy with Light Rain 43 6 43 6 100 100 SW 8 13 30.00 1016 3 4 0.00 0.00
9:53 am 09:53 Cloudy with Light Rain 42 5.6 42 5.6 100 100 SW 7 11 29.95 1014 2 2 0.06 1.52
9:57 am 09:57 Cloudy with Light Rain 42 5.6 42 5.6 100 100 Calm 30.00 1016 1 1 0.04 1.02
10:06 am 10:06 Cloudy with Light Rain 43 6 43 6 100 100 Calm 29.97 1015 3 4 0.00 0.00
10:22 am 10:22 Cloudy with Mist and Fog 43 6 43 6 100 100 WSW 22 35 30.03 1017 4 6 0.00 0.00
10:33 am 10:33 Cloudy with Light Rain 42 5.6 42 5.6 100 100 W 17 28 30.00 1016 2 3 0.05 1.27
10:37 am 10:37 Cloudy with Light Rain 42 5.6 42 5.6 100 100 WNW 13 20 30.00 1016 2 2 0.05 1.27
10:43 am 10:43 Cloudy with Light Rain 42 5.6 42 5.6 100 100 NNW 12 19 29.97 1015 2 3 0.06 1.52
10:53 am 10:53 Cloudy with Light Rain 42 5.6 42 5.6 100 100 N 10 17 29.91 1013 6 10 0.06 1.52
11:15 am 11:15 Cloudy with Light Rain 43 6.1 42 5.6 97 97 NE 9 15 29.94 1014 10 16 0.00 0.03
11:25 am 11:25 Cloudy with Light Rain 43 6.1 42 5.6 97 97 ENE 13 20 29.94 1014 10 16 0.01 0.25
11:37 am 11:37 Cloudy with Light Rain 43 6.1 42 5.6 97 97 E 16 26 29.91 1013 10 16 0.01 0.25
11:53 am 11:53 Cloudy 43 6 43 6 100 100 E 14 22 29.94 1014 10 16 0.00 0.00
12:53 pm 12:53 Mostly Cloudy 46 7.8 44 6.7 93 93 WNW 25 41 29.81 1010 10 16 0.00 0.03
1:23 pm 13:23 Cloudy 47 8.3 44 6.7 90 90 WNW 18 30 29.85 1011 10 16 0.00 0.00
1:30 pm 13:30 Cloudy 46 8 45 7 93 93 NW 18 30 29.85 1011 10 16 0.00 0.00
1:53 pm 13:53 Cloudy 48 8.9 44 6.7 86 86 NNW 14 22 29.79 1009 10 16 0.00 0.00
2:53 pm 14:53 Cloudy 50 10 44 6.7 80 80 NW 12 19 29.79 1009 10 16 0.00 0.00
3:53 pm 15:53 Cloudy 51 10.6 44 6.7 77 77 NW 9 15 29.82 1010 10 16 0.00 0.00
4:53 pm 16:53 Mostly Cloudy 51 10.6 43 6.1 74 74 N 7 11 29.82 1010 10 16 0.00 0.03
5:53 pm 17:53 Mostly Cloudy 49 9.4 44 6.7 83 83 Calm 29.82 1010 10 16 0.00 0.00
6:53 pm 18:53 Mostly Cloudy 48 8.9 43 6.1 83 83 SW 8 13 29.86 1011 10 16 0.00 0.03
7:53 pm 19:53 Clear 46 7.8 41 5 83 83 WSW 8 13 29.89 1012 10 16 0.00 0.00
8:53 pm 20:53 Clear 44 6.7 37 2.8 76 76 WSW 7 11 29.90 1013 10 16 0.00 0.00
9:53 pm 21:53 Clear 40 4.4 36 2.2 86 86 SSW 6 9 29.91 1013 10 16 0.00 0.00
10:53 pm 22:53 Clear 39 3.9 36 2.2 89 89 SW 6 9 29.91 1013 10 16 0.00 0.00
11:53 pm 23:53 Clear 41 5 38 3.3 89 89 SSE 7 11 29.91 1013 10 16 0.00 0.00

Powered by AerisWeather